Regional Weather Roundup
Issued by NWS

Home | Current Version | Previous Version | Graphics & Text | Print | Product List | Glossary On
Versions: 1 2 3 4 5 6 7 8 9 10 11 12 13 14 15 16 17 18 19 20 21 22 23 24 25 26 27 28 29 30 31 32 33 34 35 36 37 38 39 40 41 42 43 44 45 46 47 48 49 50
987
ASUS45 KCYS 110610
RWRWY

WYOMING REGIONAL WEATHER ROUNDUP
NATIONAL WEATHER SERVICE CHEYENNE WY
1100 PM MST WED FEB 10 2016

NOTE:  "FAIR" INDICATES FEW OR NO CLOUDS BELOW 12,000 FEET
WITH NO SIGNIFICANT WEATHER AND/OR OBSTRUCTIONS TO VISIBILITY.

WYZ001-110700-
YELLOWSTONE NATIONAL PARK

CITY           SKY/WX    TMP DP  RH WIND       PRES   REMARKS
LK YELLOWSTONE   N/A     23  19  85 CALM      30.35S
6HR MIN TEMP:  23; 6HR MAX TEMP:  35;

W YELLOWSTONE  NOT AVBL

$$
WYZ002>013-054>058-071-098>099-110700-
NORTHERN WYOMING

CITY           SKY/WX    TMP DP  RH WIND       PRES   REMARKS
JACKSON        MOCLDY    16  12  86 CALM      30.37S
CODY           MOCLDY    50  19  29 S5        30.14S
GREYBULL       MOCLDY    30  25  81 S5        30.14S WCI  25
6HR MIN TEMP:  30; 6HR MAX TEMP:  49;

WORLAND        FAIR      29  25  85 E7        30.14S WCI  22
6HR MIN TEMP:  26; 6HR MAX TEMP:  42;

SHERIDAN       FAIR      37  25  61 S6        30.07F WCI  32
6HR MIN TEMP:  32; 6HR MAX TEMP:  50;

BUFFALO        FAIR      42  23  46 SW7       30.10F
6HR MIN TEMP:  40; 6HR MAX TEMP:  51;

GILLETTE       FAIR      33  26  75 CALM      30.09F
6HR MIN TEMP:  29; 6HR MAX TEMP:  48;

HULETT         FAIR      32  27  80 SW8       30.09S WCI  25
NEWCASTLE      FAIR      30  21  69 NW5       30.11S WCI  25

$$
WYZ014>020-022>026-101>103-110700-
CENTRAL WYOMING

CITY           SKY/WX    TMP DP  RH WIND       PRES   REMARKS
BIG PINEY      FAIR      25  16  68 N5        30.33S WCI  19
6HR MIN TEMP:  20; 6HR MAX TEMP:  39;

PINEDALE         N/A     21  18  86 CALM      30.35R
DUBOIS         FAIR      37  12  35 NW21      30.23F WCI  27
LANDER         FAIR      34  18  52 W9        30.19R WCI  27
6HR MIN TEMP:  31; 6HR MAX TEMP:  45;

RIVERTON       FAIR      32  19  58 SW9       30.20R WCI  24
6HR MIN TEMP:  26; 6HR MAX TEMP:  39;

CASPER         FAIR      38  21  50 SW23      30.16S WCI  27
6HR MIN TEMP:  36; 6HR MAX TEMP:  42;

DOUGLAS        FAIR      30  23  75 NE5         N/A  WCI  25
6HR MIN TEMP:  28; 6HR MAX TEMP:  45;


$$
WYZ021-027>030-104>119-110700-
SOUTHERN WYOMING

CITY           SKY/WX    TMP DP  RH WIND       PRES   REMARKS
EVANSTON       FAIR      29  15  56 S8        30.38S WCI  21
6HR MIN TEMP:  26; 6HR MAX TEMP:  38;

KEMMERER       FAIR      27  16  63 NW10      30.38R WCI  17
FORT BRIDGER   CLEAR     34  16  47 W18       30.38F WCI  23
ROCK SPRINGS   FAIR      34  18  52 W16       30.33R WCI  24
6HR MIN TEMP:  34; 6HR MAX TEMP:  40;

DIXON          FAIR      12   7  79 E3        30.38S
RAWLINS        FAIR      34  17  50 W17       30.26F WCI  23
6HR MIN TEMP:  32; 6HR MAX TEMP:  35;

SARATOGA       FAIR      21  14  73 SE8       30.32R WCI  12
LARAMIE        FAIR      25  16  68 W9        30.23S WCI  15
6HR MIN TEMP:  25; 6HR MAX TEMP:  40;

CHEYENNE       FAIR      36  16  44 W8        30.19S WCI  30
6HR MIN TEMP:  36; 6HR MAX TEMP:  47;

TORRINGTON     FAIR      31  23  72 W7        30.13F WCI  24
6HR MIN TEMP:  31; 6HR MAX TEMP:  54;

PINE BLUFFS    FAIR      32  21  64 W9        30.18S WCI  24

$$




USA.gov is the U.S. government's official web portal to all federal, state and local government web resources and services.